STARLINK-32179, 60734

Orbit data source: Space-Track

STARLINK-32179, 60734 is a payload satellite owned by SpaceX/Seattle (US) in LEO that was launched on Wed, 28 Aug 2024 UTC via an FALCON 9 launch vehicle from the Air Force Eastern Test Range (AFETR). Payload-class satellites include a variety of spacecraft equipped with specific instruments for various scientific and technological missions. These include communications satellites like Starlink; space stations such as the ISS; scientific satellites like the Hubble; Earth observation satellites from companies like Planet Labs, Umbra, and HawkEye 360; GPS; miniature CubeSats for education and research; and military/defense satellites.

Loading next visibility...
Identifier
60734, 2024-152Q
Orbit
LEO
Last TLE update
11 hours ago
Origin
Manufacturer
SpaceX/Seattle
Mission
Operational Commercial Communications
Bus & Motor
STARLINK V2M, Unknown motor
Mass
730 kg wet, ~700 kg dry
Launch date (UTC)
2024-08-28 (10 months ago)
Launch vehicle
FALCON 9
Launch site
Air Force Eastern Test Range (AFETR)
Object type
Payload
Rocket body
Debris
Shape & HBR
Box + 2 Pan, 29 m
Radar Cross Section
36.964 m², Large (>1 m²)

Expand to show TLE details & history

TLE from 11 hours ago
0 STARLINK-32179
1 60734U 24152Q   25183.78383237  .00000377  00000-0  24854-4 0  9998
2 60734  53.1617 349.6102 0001227  91.0697 269.0444 15.30191272 48455
Epoch: 2025-07-02T18:48Z
TLE epoch observation values (Epoch: 2025-07-02T18:48:43.116Z)
Latitude
-0.00007°
Longitude
146.37053°
Altitude
476.155 km
Speed
7.629 km/s
True Right ascension
23h 18m 26s
True Declination
0° 00' 00"
Sunlit
Object was in daylight at epoch
Visualization orbit readout
Latitude
4.00383°
Longitude
147.23126°
Altitude
475.67 km
Speed
7.63 km/s
Apparent Right ascension
01h 48m 24s
Apparent Declination
-23° 40' 44"
Sunlit
Object is in daylight
Visualization observer readout
Local Sidereal Time
17:33:57
Azimuth
88.702° E
Elevation
-40.281°
Doppler factor
1
Orbital elements
Apogee altitude
476.338 km
Perigee altitude
474.656 km
Semi-major axis
6,853.634 km
Eccentricity
0.00012
Inclination
53.1617°
RAAN
349.6102°
Arg. of periapsis
91.0697°
True anomaly
Unknown
Mean anomaly
269.0444°
Eccentric anomaly
Unknown
Mean motion
3.82527 °/min
Orbital period
94.11 mins
BSTAR
0.000024854
Loading maneuver chart data...
Loading SW <> Apogee altitude chart data...
Loading historical data...
Loading historical data...
Loading historical data...
Loading historical data...
Loading historical data...
Loading historical data...
Loading historical data...

STARLINK-32179 Visibility forecast

Observer location: undefined°, undefined°

Span
Click to sort rows by Start time (UTC) header in descending order
Start Az.
Max El. time (UTC)
Max El. Az.
Max El.
End time (UTC)
End Az.
6 mins2025-07-03 13:48:23.453Z228.718° WSW2025-07-03 13:51:23.453Z53.543° ENE44.654°2025-07-03 13:54:23.453Z50.163° ENE
5 mins2025-07-03 20:24:23.453Z317.703° NNW2025-07-03 20:26:23.453Z57.196° ENE43.769°2025-07-03 20:29:23.453Z123.87° SE
|